Weather in Krasnoyarskoye

Russia / Kurgan Oblast     55°20′04″N   62°27′47″E
temp.,
°C
wind,
m/s
gust,
m/s
humid.,
%
clouds,
%
prec.,
mm/h
press.,
hPa
HPBL,
m
15 may, sat
sat1523:00+23sw234252 0.1 102235
02:00+19wnw33535 0.6 102326
05:00+17nw34647 0.8 102357
08:00+22wnw344712 0.0 1023224
11:00+27w452939 0.0 10221366
14:00+29w45273 0.0 10212310
17:00+30w47235 0.0 10203359
20:00+25wnw494110 0.0 1020157
16 may, sun
sun1623:00+21wnw484873 0.0 1020121
02:00+19wnw365596 0.0 102078
05:00+17w465956 0.0 102178
08:00+22w4648100 0.0 1021252
11:00+28w563133 0.0 1021953
14:00+31w462383 0.0 10202773
17:00+31wnw462111 0.0 10193543
20:00+27wnw123399 0.0 101915
17 may, mon
mon1723:00+23wnw343693 0.1 102044
02:00+19wnw354810 0.0 102062
05:00+18w33505 0.0 102024
08:00+24w23415 0.0 1020212
11:00+29w34295 0.0 10201825
14:00+31w472342 0.0 10183271
17:00+24w9124098 0.4 1018661
20:00+25wsw5940100 0.1 1017175
18 may, tue
tue1823:00+21w4747100 0.1 1017101
02:00+19wnw465648 0.0 101794
05:00+17nw346511 0.0 101863
08:00+22wnw455691 0.0 1017267
11:00+27wnw4638100 0.0 10171363
14:00+27nw6838100 0.0 10162051
17:00+28nw58282 0.0 10162781
20:00+24wnw45421 0.0 101565
19 may, wed
wed1923:00+19nne511472 0.0 1017292
02:00+16nw237698 0.0 101960
05:00+14n37835 0.0 1020156
08:00+17ne58660 0.0 1022563
11:00+21ne55520 0.0 10231116
14:00+23ne444218 0.0 10231659
17:00+24ne3339100 0.0 10231725
20:00+20e345471 0.0 102368